Asswan, Egypt

2:10 PM EET on February 23, 2017 (GMT +0200)
Aswan

Weather History for HESN - February, 2013

Change the Weather History Date:

Tuesday, February 12, 2013

  Actual Average Record
Temperature  
Mean Temperature 62 °F -  
Max Temperature 73 °F 78 °F 87 °F (2014)
Min Temperature 50 °F 54 °F 48 °F (1997)
Degree Days  
Heating Degree Days 4    
Growing Degree Days 12 (Base 50)    
Moisture  
Dew Point 26 °F    
Average Humidity 24    
Maximum Humidity 33    
Minimum Humidity 11    
Precipitation  
Precipitation 0.00 in 0.00 in - ()
Sea Level Pressure  
Sea Level Pressure 30.02 in    
Wind  
Wind Speed 10 mph ()    
Max Wind Speed 24 mph    
Max Gust Speed -    
Visibility 6.0 miles    
Events      
Averages and records for this station are not official NWS values.
T = Trace of Precipitation, MM = Missing Value Source: Averaged Metar Reports

Daily Weather History Graph

Daily Weather History Graph

Search for Another Location

Airport or City:

Trip Planner

Search our weather history database for the weather conditions in past years. The results will help you decide how hot, cold, wet, or windy it might be!

Date:

Astronomy

Feb. 12, 2013 Rise Set
Actual Time 6:24 AM EET 5:42 PM EET
Civil Twilight 6:00 AM EET 6:05 PM EET
Nautical Twilight 5:34 AM EET 6:32 PM EET
Astronomical Twilight 5:07 AM EET 6:58 PM EET
Moon 7:31 AM EET (2/12) 7:57 PM EET (2/12)
Length of Visible Light 12h 04m
Length of Day
11h 18m
Waxing Crescent, 6% of the Moon is Illuminated
Feb 12
Waxing Crescent
Feb 17
First Quarter
Feb 25
Full
Mar 4
Last Quarter
Mar 11
New

Hourly Weather History & Observations

Time (EET) Temp. Dew Point Humidity Pressure Visibility Wind Dir Wind Speed Gust Speed Precip Events Conditions
1:00 AM 59.0 °F 26.6 °F 29% 30.01 in - North 9.2 mph - N/A   Clear
2:00 AM 58 °F 25 °F 17% 30.03 in 6 mi North 11.5 mph - -  
2:00 AM 57.2 °F 24.8 °F 29% 30.01 in - North 11.5 mph - N/A   Clear
3:00 AM 57.2 °F 24.8 °F 29% 30.01 in - North 11.5 mph - N/A   Clear
4:00 AM 55.4 °F 26.6 °F 33% 30.01 in - North 11.5 mph - N/A   Clear
5:00 AM 53.6 °F 24.8 °F 33% 30.01 in - North 8.1 mph - N/A   Clear
6:00 AM 51.8 °F 23.0 °F 33% 30.04 in - North 6.9 mph - N/A   Clear
7:00 AM 51.8 °F 23.0 °F 33% 30.04 in - North 9.2 mph - N/A   Clear
8:00 AM 54 °F 25 °F 20% 30.07 in 6 mi North 11.5 mph - -  
8:00 AM 53.6 °F 24.8 °F 33% 30.06 in - North 11.5 mph - N/A   Clear
9:00 AM 59.0 °F 26.6 °F 29% 30.06 in - North 10.4 mph - N/A   Clear
10:00 AM 62.6 °F 28.4 °F 27% 30.06 in - NNE 24.2 mph - N/A   Clear
11:00 AM 66.2 °F 28.4 °F 24% 30.04 in - North 12.7 mph - N/A   Clear
12:00 PM 62.6 °F 28.4 °F 27% 30.06 in - NNE 24.2 mph - N/A   Clear
12:23 PM 62.6 °F 28.4 °F 27% 30.06 in - NNE 24.2 mph - N/A   Clear
1:00 PM 69.8 °F 32.0 °F 25% 30.01 in - North 6.9 mph - N/A   Clear
2:00 PM 72 °F 30 °F 11% 29.98 in 6 mi NW 8.1 mph - -  
2:00 PM 71.6 °F 30.2 °F 22% 29.98 in - NW 8.1 mph - N/A   Clear
3:00 PM 73.4 °F 26.6 °F 18% 29.98 in - North 10.4 mph - N/A   Clear
4:00 PM 73.4 °F 26.6 °F 18% 29.98 in - North 10.4 mph - N/A   Clear
5:00 PM 71.6 °F 24.8 °F 17% 29.98 in - North 9.2 mph - N/A   Clear
6:00 PM 68.0 °F 23.0 °F 18% 29.98 in - NNW 8.1 mph - N/A   Clear
7:00 PM 66.2 °F 24.8 °F 21% 29.98 in - NNW 8.1 mph - N/A   Clear
8:00 PM 64 °F 23 °F 11% 30.00 in 6 mi North 6.9 mph - -  
8:00 PM 64.4 °F 23.0 °F 21% 30.01 in - North 6.9 mph - N/A   Clear
9:00 PM 60.8 °F 23.0 °F 23% 30.01 in - North 5.8 mph - N/A   Clear
10:00 PM 60.8 °F 23.0 °F 23% 30.01 in - North 5.8 mph - N/A   Clear
11:00 PM 59.0 °F 24.8 °F 27% 30.01 in - North 5.8 mph - N/A   Clear